Time,TemperatureF,DewpointF,PressureIn,WindDirection,WindDirectionDegrees,WindSpeedMPH,WindSpeedGustMPH,Humidity,HourlyPrecipIn,Conditions,Clouds,dailyrainin,SoftwareType,DateUTC
2013-03-06 00:01:00,44.0,-99.9,-100.00,NW,321,9.0,-999.0,-999,-99.99,,,-99.99,,2013-03-06 08:01:00,
2013-03-06 00:11:00,44.0,-99.9,-100.00,NW,321,9.0,-999.0,-999,-99.99,,,-99.99,,2013-03-06 08:11:00,
2013-03-06 00:20:00,43.0,-99.9,-100.00,WNW,296,9.0,-999.0,-999,-99.99,,,-99.99,,2013-03-06 08:20:00,
2013-03-06 01:02:00,43.0,-99.9,-100.00,WNW,296,9.0,-999.0,-999,-99.99,,,-99.99,,2013-03-06 09:02:00,
2013-03-06 01:12:00,43.0,-99.9,-100.00,WNW,296,9.0,-999.0,-999,-99.99,,,-99.99,,2013-03-06 09:12:00,
2013-03-06 01:20:00,43.0,-99.9,-100.00,WNW,290,12.0,-999.0,-999,-99.99,,,-99.99,,2013-03-06 09:20:00,
2013-03-06 02:02:00,43.0,-99.9,-100.00,WNW,290,12.0,-999.0,-999,-99.99,,,-99.99,,2013-03-06 10:02:00,
2013-03-06 02:12:00,43.0,-99.9,-100.00,WNW,290,12.0,-999.0,-999,-99.99,,,-99.99,,2013-03-06 10:12:00,
2013-03-06 02:20:00,43.0,-99.9,-100.00,WNW,297,14.0,-999.0,-999,-99.99,,,-99.99,,2013-03-06 10:20:00,
2013-03-06 03:02:00,43.0,-99.9,-100.00,WNW,297,14.0,-999.0,-999,-99.99,,,-99.99,,2013-03-06 11:02:00,
2013-03-06 03:12:00,43.0,-99.9,-100.00,WNW,297,14.0,-999.0,-999,-99.99,,,-99.99,,2013-03-06 11:12:00,
2013-03-06 03:20:00,43.0,-99.9,-100.00,WNW,300,15.0,-999.0,-999,-99.99,,,-99.99,,2013-03-06 11:20:00,
2013-03-06 04:02:00,43.0,-99.9,-100.00,WNW,300,15.0,-999.0,-999,-99.99,,,-99.99,,2013-03-06 12:02:00,
2013-03-06 04:12:00,43.0,-99.9,-100.00,WNW,300,15.0,-999.0,-999,-99.99,,,-99.99,,2013-03-06 12:12:00,
2013-03-06 04:20:00,43.0,-99.9,-100.00,WNW,301,13.0,-999.0,-999,-99.99,,,-99.99,,2013-03-06 12:20:00,
2013-03-06 05:02:00,43.0,-99.9,-100.00,WNW,301,13.0,-999.0,-999,-99.99,,,-99.99,,2013-03-06 13:02:00,
2013-03-06 05:12:00,43.0,-99.9,-100.00,WNW,301,13.0,-999.0,-999,-99.99,,,-99.99,,2013-03-06 13:12:00,
2013-03-06 05:20:00,44.0,-99.9,-100.00,NW,310,17.0,-999.0,-999,-99.99,,,-99.99,,2013-03-06 13:20:00,
2013-03-06 06:02:00,44.0,-99.9,-100.00,NW,310,17.0,-999.0,-999,-99.99,,,-99.99,,2013-03-06 14:02:00,
2013-03-06 06:12:00,44.0,-99.9,-100.00,NW,310,17.0,-999.0,-999,-99.99,,,-99.99,,2013-03-06 14:12:00,
2013-03-06 06:20:00,44.0,-99.9,-100.00,NW,320,20.0,-999.0,-999,-99.99,,,-99.99,,2013-03-06 14:20:00,
2013-03-06 07:02:00,44.0,-99.9,-100.00,NW,320,20.0,-999.0,-999,-99.99,,,-99.99,,2013-03-06 15:02:00,
2013-03-06 07:12:00,44.0,-99.9,-100.00,NW,320,20.0,-999.0,-999,-99.99,,,-99.99,,2013-03-06 15:12:00,
2013-03-06 07:20:00,44.0,-99.9,-100.00,NW,322,17.0,-999.0,-999,-99.99,,,-99.99,,2013-03-06 15:20:00,
2013-03-06 08:02:00,44.0,-99.9,-100.00,NW,322,17.0,-999.0,-999,-99.99,,,-99.99,,2013-03-06 16:02:00,
2013-03-06 08:12:00,44.0,-99.9,-100.00,NW,322,17.0,-999.0,-999,-99.99,,,-99.99,,2013-03-06 16:12:00,
2013-03-06 08:20:00,44.0,-99.9,-100.00,NW,305,12.0,-999.0,-999,-99.99,,,-99.99,,2013-03-06 16:20:00,
2013-03-06 09:02:00,44.0,-99.9,-100.00,NW,305,12.0,-999.0,-999,-99.99,,,-99.99,,2013-03-06 17:02:00,
2013-03-06 09:12:00,44.0,-99.9,-100.00,NW,305,12.0,-999.0,-999,-99.99,,,-99.99,,2013-03-06 17:12:00,
2013-03-06 09:20:00,44.0,-99.9,-100.00,WNW,295,8.0,-999.0,-999,-99.99,,,-99.99,,2013-03-06 17:20:00,
2013-03-06 10:02:00,44.0,-99.9,-100.00,WNW,295,8.0,-999.0,-999,-99.99,,,-99.99,,2013-03-06 18:02:00,
2013-03-06 10:20:00,44.0,-99.9,-100.00,NW,309,13.0,-999.0,-999,-99.99,,,-99.99,,2013-03-06 18:20:00,
2013-03-06 11:02:00,44.0,-99.9,-100.00,NW,309,13.0,-999.0,-999,-99.99,,,-99.99,,2013-03-06 19:02:00,
2013-03-06 11:11:00,44.0,-99.9,-100.00,NW,309,13.0,-999.0,-999,-99.99,,,-99.99,,2013-03-06 19:11:00,
2013-03-06 11:20:00,44.0,-99.9,-100.00,WNW,300,14.0,-999.0,-999,-99.99,,,-99.99,,2013-03-06 19:20:00,
2013-03-06 12:02:00,44.0,-99.9,-100.00,WNW,300,14.0,-999.0,-999,-99.99,,,-99.99,,2013-03-06 20:02:00,
2013-03-06 12:12:00,44.0,-99.9,-100.00,WNW,300,14.0,-999.0,-999,-99.99,,,-99.99,,2013-03-06 20:12:00,
2013-03-06 12:20:00,44.0,-99.9,-100.00,NW,311,10.0,-999.0,-999,-99.99,,,-99.99,,2013-03-06 20:20:00,
2013-03-06 13:03:00,44.0,-99.9,-100.00,NW,311,10.0,-999.0,-999,-99.99,,,-99.99,,2013-03-06 21:03:00,
2013-03-06 13:12:00,44.0,-99.9,-100.00,NW,311,10.0,-999.0,-999,-99.99,,,-99.99,,2013-03-06 21:12:00,
2013-03-06 13:20:00,44.0,-99.9,-100.00,NW,307,8.0,-999.0,-999,-99.99,,,-99.99,,2013-03-06 21:20:00,
2013-03-06 14:02:00,44.0,-99.9,-100.00,NW,307,8.0,-999.0,-999,-99.99,,,-99.99,,2013-03-06 22:02:00,
2013-03-06 14:12:00,44.0,-99.9,-100.00,NW,307,8.0,-999.0,-999,-99.99,,,-99.99,,2013-03-06 22:12:00,
2013-03-06 14:20:00,44.0,-99.9,-100.00,NNW,336,2.0,-999.0,-999,-99.99,,,-99.99,,2013-03-06 22:20:00,
2013-03-06 15:02:00,44.0,-99.9,-100.00,NNW,336,2.0,-999.0,-999,-99.99,,,-99.99,,2013-03-06 23:02:00,
2013-03-06 15:11:00,44.0,-99.9,-100.00,NNW,336,2.0,-999.0,-999,-99.99,,,-99.99,,2013-03-06 23:11:00,
2013-03-06 15:20:00,44.0,-99.9,-100.00,North,0,0.0,-999.0,-999,-99.99,,,-99.99,,2013-03-06 23:20:00,
2013-03-06 16:02:00,44.0,-99.9,-100.00,North,0,0.0,-999.0,-999,-99.99,,,-99.99,,2013-03-07 00:02:00,
2013-03-06 16:11:00,44.0,-99.9,-100.00,North,0,0.0,-999.0,-999,-99.99,,,-99.99,,2013-03-07 00:11:00,
2013-03-06 16:20:00,43.0,-99.9,-100.00,ENE,67,1.0,-999.0,-999,-99.99,,,-99.99,,2013-03-07 00:20:00,
2013-03-06 17:02:00,43.0,-99.9,-100.00,ENE,67,1.0,-999.0,-999,-99.99,,,-99.99,,2013-03-07 01:02:00,
2013-03-06 17:12:00,43.0,-99.9,-100.00,ENE,67,1.0,-999.0,-999,-99.99,,,-99.99,,2013-03-07 01:12:00,
2013-03-06 17:20:00,43.0,-99.9,-100.00,ENE,64,0.0,-999.0,-999,-99.99,,,-99.99,,2013-03-07 01:20:00,
2013-03-06 18:02:00,43.0,-99.9,-100.00,ENE,64,0.0,-999.0,-999,-99.99,,,-99.99,,2013-03-07 02:02:00,
2013-03-06 18:11:00,43.0,-99.9,-100.00,ENE,64,0.0,-999.0,-999,-99.99,,,-99.99,,2013-03-07 02:11:00,
2013-03-06 18:20:00,43.0,-99.9,-100.00,ENE,62,3.0,-999.0,-999,-99.99,,,-99.99,,2013-03-07 02:20:00,
2013-03-06 19:02:00,43.0,-99.9,-100.00,ENE,62,3.0,-999.0,-999,-99.99,,,-99.99,,2013-03-07 03:02:00,
2013-03-06 19:12:00,43.0,-99.9,-100.00,ENE,62,3.0,-999.0,-999,-99.99,,,-99.99,,2013-03-07 03:12:00,
2013-03-06 19:20:00,43.0,-99.9,-100.00,South,172,2.0,-999.0,-999,-99.99,,,-99.99,,2013-03-07 03:20:00,
2013-03-06 20:02:00,43.0,-99.9,-100.00,South,172,2.0,-999.0,-999,-99.99,,,-99.99,,2013-03-07 04:02:00,
2013-03-06 20:12:00,43.0,-99.9,-100.00,South,172,2.0,-999.0,-999,-99.99,,,-99.99,,2013-03-07 04:12:00,
2013-03-06 20:20:00,44.0,-99.9,-100.00,SSW,206,6.0,-999.0,-999,-99.99,,,-99.99,,2013-03-07 04:20:00,
2013-03-06 21:03:00,44.0,-99.9,-100.00,SSW,206,6.0,-999.0,-999,-99.99,,,-99.99,,2013-03-07 05:03:00,
2013-03-06 21:12:00,44.0,-99.9,-100.00,SSW,206,6.0,-999.0,-999,-99.99,,,-99.99,,2013-03-07 05:12:00,
2013-03-06 21:20:00,43.0,-99.9,-100.00,SSW,200,9.0,-999.0,-999,-99.99,,,-99.99,,2013-03-07 05:20:00,
2013-03-06 22:02:00,43.0,-99.9,-100.00,SSW,200,9.0,-999.0,-999,-99.99,,,-99.99,,2013-03-07 06:02:00,
2013-03-06 22:11:00,43.0,-99.9,-100.00,SSW,200,9.0,-999.0,-999,-99.99,,,-99.99,,2013-03-07 06:11:00,
2013-03-06 22:20:00,42.0,-99.9,-100.00,SSW,192,6.0,-999.0,-999,-99.99,,,-99.99,,2013-03-07 06:20:00,
2013-03-06 23:02:00,42.0,-99.9,-100.00,SSW,192,6.0,-999.0,-999,-99.99,,,-99.99,,2013-03-07 07:02:00,
2013-03-06 23:11:00,42.0,-99.9,-100.00,SSW,192,6.0,-999.0,-999,-99.99,,,-99.99,,2013-03-07 07:11:00,
2013-03-06 23:20:00,43.0,-99.9,-100.00,South,182,6.0,-999.0,-999,-99.99,,,-99.99,,2013-03-07 07:20:00,